Theta_e
315 314 314 313 313 312 311 310 310 310 309 309 308 308 307 308 307 307 307 306 306 306 306 305 305 305 305 305 304 303 303 304 304 304 304 305 306 306 306 307 307 308 308 308 310 311 312 312 313 314 315 316 319 322 324 324 324 324 324 324 323 324 322 320 318 318 321 321 321 323 327 327 327 324 321 319 318 319 319 320 318 317 316 316 315
315 314 313 313 312 312 311 310 310 309 308 308 308 308 307 307 306 306 305 305 305 305 305 304 305 305 304 304 303 303 303 303 303 303 304 304 304 306 306 305 306 307 307 307 308 310 310 309 310 311 313 314 315 318 321 323 324 323 323 323 323 323 325 322 320 319 319 317 320 321 322 327 324 324 320 319 318 317 318 317 317 317 317 316 315
315 314 313 312 312 312 311 310 310 309 308 307 308 308 307 306 307 305 305 305 305 305 305 305 305 304 303 303 302 301 302 302 302 303 302 302 302 303 304 304 304 304 305 306 307 308 308 308 308 309 311 311 313 314 317 320 323 323 323 324 323 323 324 324 322 319 319 319 320 320 319 323 322 321 322 322 320 318 316 316 316 317 317 316 315
314 313 312 312 311 311 310 310 309 308 307 307 307 307 307 306 307 306 306 305 305 305 305 305 304 303 303 302 301 301 302 302 302 302 302 302 302 303 303 303 303 303 304 304 306 307 307 307 308 309 310 309 310 312 314 315 318 320 321 323 323 323 324 324 324 322 321 319 318 320 320 320 320 322 323 323 319 316 317 316 317 316 315 314 314
314 313 312 311 310 310 310 310 309 308 307 307 307 307 307 306 306 306 305 304 305 304 304 305 303 303 303 302 301 301 301 301 301 301 302 302 302 303 303 303 303 304 304 304 306 305 305 306 308 308 308 308 308 309 310 312 314 317 319 320 321 323 323 323 323 324 322 319 319 319 321 320 322 322 322 320 315 315 315 314 314 313 312 312 312
313 312 311 311 310 309 309 309 308 308 307 307 307 307 307 306 305 305 305 304 303 304 303 302 303 302 301 301 301 300 300 300 301 301 301 301 302 302 303 303 303 303 303 304 304 304 305 305 306 306 307 307 307 309 310 311 312 313 315 318 319 319 321 322 322 322 321 321 320 316 319 319 319 320 320 319 314 312 312 313 312 311 309 308 307
312 311 310 310 309 309 309 308 308 307 307 307 307 306 306 305 305 305 305 304 303 302 302 301 301 301 300 300 300 301 301 301 301 301 301 302 302 302 302 302 302 303 303 304 304 304 305 305 305 306 306 307 307 308 308 309 311 311 313 314 316 317 317 319 320 320 320 319 319 319 318 320 320 317 319 319 315 313 310 308 307 308 308 308 304
311 310 309 309 309 309 308 308 307 307 307 306 306 306 305 304 304 304 304 302 301 301 301 300 299 300 300 299 300 301 300 300 301 301 302 302 301 301 301 301 302 302 302 302 303 302 303 304 304 306 307 307 307 307 308 308 309 309 310 311 312 314 315 316 316 318 319 319 318 317 316 318 318 318 319 316 311 311 312 309 306 303 304 306 305
310 309 308 308 308 308 308 308 307 307 306 306 305 304 304 302 302 302 302 302 303 301 301 300 299 298 298 298 298 299 300 300 301 301 300 300 300 300 300 301 301 301 301 302 301 301 301 301 302 303 306 307 303 303 304 306 308 307 307 307 307 308 310 314 314 314 317 319 318 318 315 315 316 312 314 312 310 310 311 309 307 305 304 302 302
310 308 308 307 308 308 308 308 307 306 305 304 303 302 301 301 301 300 300 300 299 300 299 299 297 297 296 296 296 298 298 299 301 297 297 297 297 297 298 298 298 298 299 299 300 301 301 300 302 304 303 302 301 300 299 299 301 304 306 306 306 305 306 308 311 314 315 315 317 318 316 315 315 313 315 314 312 311 309 306 304 303 301 299 298
308 307 307 307 308 308 307 306 305 304 303 302 301 301 301 301 300 300 299 299 299 299 298 295 295 296 295 295 295 296 297 298 296 294 294 295 296 296 295 296 296 296 297 297 297 298 299 300 300 302 302 302 302 299 298 297 297 297 298 299 302 304 304 304 306 309 313 315 317 318 317 315 315 313 314 314 310 308 307 305 304 300 298 297 296
307 306 306 306 306 305 304 304 303 302 302 301 300 301 300 299 299 298 297 298 297 297 295 294 294 295 295 295 294 294 295 297 294 294 294 294 295 296 295 295 295 295 296 296 296 297 297 298 299 300 301 301 301 302 301 299 298 297 297 297 297 297 297 303 305 306 309 312 314 315 317 316 316 315 312 311 308 306 306 305 303 299 298 299 300
306 305 305 305 304 303 303 302 302 301 301 301 300 300 299 298 297 296 296 296 296 294 293 294 294 294 294 293 293 294 294 295 294 294 294 293 293 295 295 295 295 295 295 295 295 296 296 297 297 299 300 301 303 301 300 301 299 298 298 299 299 299 297 296 297 304 308 310 311 313 316 316 313 314 315 311 308 306 304 303 302 300 300 300 301
305 304 304 304 303 302 302 301 300 299 299 298 298 297 297 295 295 295 296 296 293 292 293 293 293 293 293 293 293 293 294 295 294 294 293 293 292 293 295 294 294 294 294 294 295 295 295 295 295 296 297 298 299 299 299 299 300 300 301 302 304 304 300 299 298 295 299 307 310 311 315 318 315 314 315 311 307 305 304 303 302 300 299 300 301
304 303 302 302 302 301 301 299 298 297 297 296 296 295 295 294 295 295 294 293 291 291 291 292 292 293 292 292 292 293 295 294 293 293 293 292 292 292 294 295 294 294 294 294 294 294 295 295 295 295 296 296 298 298 298 298 298 299 299 299 300 300 301 303 305 306 302 302 307 310 313 317 318 317 317 314 310 308 307 306 304 302 300 298 296
303 302 301 301 301 299 298 296 296 296 296 296 295 295 294 294 295 294 293 292 291 291 292 292 291 290 291 291 291 292 293 293 292 292 292 291 292 293 293 293 293 292 293 293 294 294 294 294 295 295 296 297 297 295 296 297 297 297 297 297 298 299 300 301 300 301 304 306 307 308 311 315 311 317 314 313 310 310 305 303 301 299 299 297 295
302 301 301 300 299 298 297 296 296 295 295 295 294 294 293 293 292 292 291 290 290 291 291 291 291 290 291 291 291 291 291 292 292 292 292 292 292 293 292 292 292 292 292 293 293 293 294 294 294 295 295 296 296 293 293 294 296 296 296 296 297 297 298 301 299 298 299 299 298 300 301 303 304 305 304 303 308 307 304 302 299 299 298 296 296
301 301 300 299 299 298 297 295 295 295 294 294 294 293 292 292 291 291 290 289 290 291 290 289 289 290 290 290 291 291 291 293 292 292 292 291 292 292 292 291 291 291 291 292 293 293 294 296 297 295 295 296 294 293 292 294 295 296 296 296 295 295 296 299 301 302 300 300 300 297 297 300 301 303 303 301 300 303 305 302 301 300 298 298 296
301 300 299 298 297 296 296 295 294 294 294 294 294 292 292 292 291 291 290 289 289 289 291 290 289 290 290 291 295 293 291 292 292 291 291 291 292 291 290 289 288 289 289 289 290 291 292 294 295 295 295 295 293 292 292 294 296 296 296 296 295 295 296 297 298 300 302 306 309 309 304 301 303 308 308 300 299 303 307 306 304 300 299 299 297
298 297 296 296 296 296 295 296 296 295 294 292 292 292 294 291 290 290 289 290 289 289 289 288 288 289 290 290 291 291 290 290 291 291 291 291 291 291 290 288 288 288 288 289 289 289 291 291 293 292 291 291 291 291 292 292 294 296 296 295 295 295 297 298 299 300 304 305 306 308 309 309 308 309 310 304 304 306 306 307 305 303 301 300 298
298 297 296 296 296 296 296 295 295 293 293 293 293 294 292 291 290 288 288 288 288 287 287 287 288 289 289 290 290 290 291 290 291 291 291 291 290 290 289 289 289 288 288 288 288 288 289 290 292 292 291 291 291 291 291 291 292 295 295 295 295 296 296 297 297 296 299 300 301 302 305 308 309 310 311 307 305 306 306 306 307 305 304 302 299
297 297 297 297 296 296 295 295 295 296 294 293 292 292 291 290 289 289 287 287 287 286 286 287 287 288 288 289 290 290 291 293 290 291 290 290 290 290 289 289 290 289 288 288 288 288 289 290 291 292 292 291 291 291 291 291 291 294 295 293 293 292 294 296 296 297 297 298 298 299 301 304 309 309 309 308 306 306 307 307 306 306 306 305 302
297 297 297 296 296 295 294 294 295 298 295 293 291 290 290 289 288 287 286 286 287 286 286 286 286 287 287 288 288 289 289 290 291 290 290 290 290 289 289 289 289 289 288 287 287 288 289 290 292 292 291 291 291 291 291 291 291 293 292 292 292 291 292 294 294 294 295 295 296 296 299 302 306 307 306 306 307 307 307 307 306 306 304 302 301
296 296 295 295 295 294 295 294 293 292 292 291 290 288 288 288 287 288 286 287 286 285 285 286 285 286 286 287 288 288 288 289 290 290 290 289 289 289 288 288 288 288 289 288 288 289 289 290 290 290 290 291 291 291 291 291 292 291 291 291 291 291 294 294 293 293 293 293 294 295 297 301 306 306 306 305 306 305 306 304 303 302 301 299 299
296 295 295 293 293 293 293 292 291 291 291 291 290 288 288 286 286 286 286 286 285 284 285 285 285 286 286 286 286 287 288 289 289 290 289 289 289 289 288 288 288 288 287 288 289 289 289 289 289 289 289 289 290 290 290 290 290 290 290 290 292 293 293 294 294 294 293 293 294 295 298 301 305 307 307 304 300 300 299 299 298 299 299 299 298
295 294 293 292 292 293 292 291 292 292 292 290 290 288 288 287 285 285 286 285 284 284 283 284 285 285 284 285 286 286 288 288 289 289 289 289 289 288 288 288 288 289 289 288 288 288 288 288 288 288 288 289 289 290 290 291 291 290 290 291 293 293 294 294 294 293 293 294 295 296 299 302 299 299 300 300 301 300 299 297 297 296 297 297 296
294 293 292 292 293 293 291 290 290 291 290 289 289 290 287 285 285 285 284 284 283 283 285 285 284 283 284 285 286 287 287 288 288 288 288 288 288 288 288 288 288 288 288 288 288 288 288 288 288 288 288 288 288 289 289 290 291 292 292 293 293 293 294 294 295 295 294 295 295 298 300 297 296 295 297 298 298 298 299 297 297 296 296 296 294
293 293 293 292 292 292 291 289 290 290 290 289 287 287 287 286 285 284 284 283 282 282 282 282 282 284 284 285 285 286 286 287 287 287 287 287 287 287 287 287 287 287 286 287 287 288 288 288 288 289 289 289 289 288 289 290 290 290 292 294 294 294 294 294 294 296 297 298 299 298 294 295 296 296 296 296 296 295 296 297 296 294 295 295 292
293 293 292 292 291 290 291 289 290 289 290 289 288 285 284 284 286 283 283 283 284 282 280 283 283 283 284 285 285 285 285 285 287 288 287 287 286 286 286 286 287 287 287 287 287 287 287 287 286 287 288 287 287 288 288 289 289 291 292 294 296 296 296 295 295 295 297 298 296 294 293 294 294 293 293 292 292 293 294 294 295 294 294 295 292
293 292 292 291 290 290 291 290 291 290 289 288 288 290 289 289 287 285 284 289 289 289 288 283 285 285 285 286 287 286 285 287 288 287 287 287 287 287 287 287 286 287 287 287 287 285 285 285 286 286 286 287 288 288 288 289 289 290 291 292 293 295 295 295 296 296 296 296 294 293 292 292 292 292 292 291 290 291 292 293 293 293 291 290 289
292 291 291 291 290 291 291 291 289 291 290 289 288 287 286 286 289 289 288 289 289 289 288 288 288 288 287 286 287 288 288 287 287 287 287 287 287 287 287 286 286 286 286 286 285 285 285 285 285 286 287 288 288 288 289 289 289 290 291 291 292 292 292 295 296 295 294 294 293 293 292 292 291 291 290 290 289 290 290 290 291 292 291 291 289
292 291 292 291 291 290 291 290 291 290 288 288 288 286 285 284 284 287 288 289 289 288 288 288 288 288 288 288 288 287 287 287 287 287 287 287 287 287 286 286 286 286 286 287 285 285 287 287 287 287 287 288 288 289 289 290 290 290 290 291 292 293 293 294 295 296 294 293 292 291 291 291 291 290 289 289 289 289 289 288 289 289 289 290 289
291 291 291 291 291 290 291 291 290 290 289 288 289 286 285 285 284 283 284 287 288 288 288 288 288 288 288 288 288 288 287 287 287 287 287 287 287 286 286 286 286 286 287 286 287 287 287 288 288 288 288 289 289 290 290 291 290 290 291 291 292 293 295 295 293 295 293 293 292 291 291 290 289 289 288 288 288 288 288 288 288 288 289 288 287
292 291 290 290 291 291 290 291 290 288 287 286 287 286 285 286 285 283 284 282 283 284 286 287 287 287 288 288 288 288 288 287 287 287 287 287 287 286 286 286 287 287 286 285 285 286 287 287 288 289 290 290 290 289 289 290 290 290 290 291 291 292 293 294 294 292 292 291 291 290 290 289 289 288 288 288 288 288 287 287 288 287 287 287 287
292 290 288 289 291 290 289 289 291 290 288 288 286 286 287 286 284 284 283 282 281 283 284 284 285 287 286 287 287 288 287 287 287 287 287 287 286 286 286 285 285 285 286 286 286 286 285 286 287 287 287 287 288 288 289 289 289 289 289 289 289 290 291 291 291 291 291 291 290 290 289 288 288 288 288 287 287 287 287 287 287 287 287 287 287
293 290 289 289 291 291 291 290 291 290 289 288 288 287 286 286 284 284 284 283 283 282 283 281 281 285 287 287 287 287 287 287 287 287 287 287 286 286 284 283 284 284 284 285 285 285 285 285 286 287 288 287 287 287 287 287 287 288 288 289 289 290 290 290 290 290 290 290 289 289 288 288 288 288 288 287 287 287 287 287 287 286 286 286 286
293 292 292 291 291 290 292 292 290 289 288 287 287 286 286 285 284 284 283 283 283 282 282 282 282 283 285 284 287 287 287 287 287 287 287 286 286 285 284 284 283 284 284 284 284 285 285 285 285 286 287 287 287 287 287 287 288 287 287 287 288 288 289 289 290 289 289 289 288 288 288 288 288 288 287 287 286 286 286 286 286 286 286 286 285
291 289 289 290 290 290 289 288 289 289 289 288 287 285 286 284 284 284 284 282 283 282 283 283 284 281 282 283 287 286 286 287 287 287 286 286 285 284 284 284 284 283 283 284 284 284 284 285 285 285 285 286 286 287 287 287 287 287 287 287 287 287 288 288 288 288 288 288 288 288 288 287 287 287 287 287 286 286 286 286 286 286 286 286 286
290 288 289 289 289 289 288 287 289 290 290 288 286 285 286 284 283 283 283 282 282 282 282 281 281 282 282 282 283 286 286 285 285 284 285 285 285 285 284 284 284 284 284 284 284 284 284 284 285 285 285 285 285 286 286 286 287 287 287 287 287 287 287 287 287 287 288 287 287 288 288 287 287 287 287 287 286 286 286 286 286 286 285 285 285
291 292 290 288 288 288 287 287 288 289 288 287 286 285 285 284 283 283 283 282 282 282 282 282 283 281 282 281 283 285 285 284 284 284 284 284 284 284 284 283 283 283 283 283 284 284 284 284 285 285 285 285 285 285 286 286 286 286 287 287 287 286 286 287 287 287 287 287 287 287 287 287 287 287 287 287 286 286 286 286 286 286 286 285 284
293 292 291 291 290 289 291 288 288 289 288 287 284 285 285 285 284 284 283 283 284 283 283 284 283 283 283 284 286 286 285 285 285 285 284 284 284 284 284 284 284 283 284 284 284 284 284 284 284 285 285 285 285 285 285 285 286 286 286 286 286 286 286 286 286 287 287 287 287 286 287 287 287 287 286 286 287 286 286 286 286 286 285 284 283
293 292 292 291 292 291 289 288 288 288 288 287 285 285 285 285 285 285 284 284 285 285 282 283 283 283 285 286 286 286 285 285 285 285 285 285 284 284 284 284 284 284 284 284 284 284 284 284 284 284 284 285 285 285 285 285 285 285 285 285 285 285 285 285 286 286 286 286 286 286 286 286 286 286 286 286 286 286 286 286 285 285 284 284 284
292 292 292 292 291 289 287 289 289 288 285 286 285 286 286 285 286 287 286 286 285 285 284 284 284 284 285 285 285 285 284 284 285 285 285 285 285 284 284 284 284 284 284 284 285 285 284 284 284 284 284 284 285 285 285 285 285 285 285 285 285 285 285 285 285 285 286 286 286 286 286 286 286 286 286 286 286 286 285 285 284 284 284 284 285
291 292 293 292 290 289 289 290 289 287 286 286 288 286 286 286 286 287 287 286 286 285 284 284 285 284 285 283 284 284 284 283 284 285 285 285 285 284 284 285 285 285 285 285 285 285 285 284 284 284 285 285 285 285 285 285 285 285 285 285 285 285 285 285 285 285 286 286 286 286 286 286 286 286 286 286 286 285 285 285 284 284 285 285 285
294 293 292 292 290 291 292 290 288 287 287 287 288 288 288 289 289 288 286 286 286 286 285 284 285 285 284 284 283 283 283 283 284 285 285 285 285 285 285 285 285 285 285 285 285 285 285 284 284 284 284 284 285 285 285 285 285 285 285 285 284 284 284 285 285 286 286 286 286 286 286 286 286 286 286 286 285 285 285 285 285 285 285 285 285
293 292 291 291 291 290 290 290 288 289 288 287 287 286 287 289 289 289 288 288 286 285 285 285 284 285 285 285 283 283 283 283 283 284 285 285 285 285 285 285 285 285 285 285 285 285 285 285 284 284 284 284 284 285 285 285 285 285 285 285 285 285 285 285 286 286 286 286 286 286 286 286 285 285 285 285 285 285 285 285 285 285 285 285 285
292 290 290 290 290 290 290 290 289 289 288 287 286 286 287 288 288 288 288 288 288 286 284 284 284 284 286 285 284 283 283 283 284 284 284 285 285 285 285 285 285 285 285 285 285 285 285 285 285 284 284 284 284 284 285 285 285 285 285 285 285 285 285 286 286 286 286 286 286 286 286 285 285 285 285 285 285 285 285 285 285 285 285 285 285
290 290 289 289 290 289 289 289 289 288 288 287 286 286 286 287 287 287 287 288 288 289 288 287 286 285 285 285 285 284 284 283 284 284 284 285 284 285 285 285 285 285 285 285 285 285 285 285 285 285 284 284 284 284 285 285 285 285 285 285 285 285 285 285 286 286 286 286 286 286 285 285 285 285 285 285 285 285 285 284 285 285 285 285 285
289 289 288 288 288 288 288 288 288 288 287 286 285 286 286 286 286 287 287 288 288 288 289 288 288 288 287 287 286 285 284 284 284 284 284 284 284 285 285 285 285 285 285 285 285 285 285 285 285 285 285 285 285 285 285 285 285 285 285 285 285 285 285 285 285 285 286 286 286 286 286 285 285 285 285 285 285 285 285 285 285 284 284 285 285
287 287 287 287 287 287 287 287 287 286 286 285 285 284 284 285 285 285 286 287 287 287 287 287 287 287 287 287 287 287 286 285 284 284 284 284 284 284 285 285 285 285 285 285 285 285 285 285 285 285 285 285 285 285 285 285 285 285 285 285 284 285 285 285 285 285 286 286 286 286 285 285 285 285 285 285 285 284 284 284 284 284 284 284 284
286 286 286 286 286 286 286 286 286 286 285 284 284 284 284 283 283 284 284 285 285 286 286 286 287 286 286 286 286 286 286 287 286 285 284 284 284 284 285 284 284 285 285 285 285 285 285 285 285 285 285 285 285 285 285 285 285 285 284 284 284 284 284 285 285 285 285 285 286 286 285 285 284 284 284 284 284 284 284 284 284 284 284 284 284
Wind_Speed
11 10 9 9 9 9 9 7 7 6 6 6 5 5 4 5 4 4 3 3 3 3 3 3 4 4 4 4 4 4 4 4 4 4 4 5 5 5 5 5 6 6 6 8 7 8 8 7 7 7 6 8 8 7 8 8 8 8 7 7 9 8 9 9 10 11 8 4 5 5 5 7 4 4 4 3 2 3 2 4 9 11 11 10 12
10 9 8 8 9 9 8 7 7 6 6 5 6 5 4 4 4 4 4 3 3 3 3 3 4 4 4 5 4 4 4 4 4 4 4 4 5 4 5 6 7 7 5 6 7 7 8 9 9 9 9 9 8 8 8 8 8 8 9 8 8 9 8 9 11 11 13 3 6 3 4 5 5 4 8 7 5 3 5 5 6 8 10 9 10
10 9 9 8 9 8 8 7 6 7 6 6 6 5 5 4 4 4 4 3 3 4 4 4 4 4 4 4 4 3 4 4 4 4 4 4 6 5 6 6 6 7 7 7 7 7 8 9 10 9 8 10 10 9 7 8 8 9 10 8 9 9 9 10 9 10 11 10 6 6 5 6 6 6 7 8 5 3 3 6 8 8 7 9 10
9 9 9 9 8 8 8 7 8 7 7 6 6 5 5 4 4 4 4 3 4 4 4 4 4 3 3 3 3 4 4 4 4 4 4 4 5 6 7 7 7 8 8 8 7 6 7 7 8 8 9 10 9 10 9 8 7 7 8 8 9 10 9 9 11 10 10 11 6 8 6 7 3 5 8 9 10 8 7 3 4 7 7 8 9
11 10 10 10 9 9 8 8 8 7 6 5 6 5 5 4 4 4 4 3 4 4 3 3 3 3 3 4 4 4 4 4 4 3 4 4 5 6 6 6 6 7 7 8 8 8 8 7 8 7 7 9 9 9 9 11 9 7 7 7 8 9 8 9 10 10 10 11 8 6 6 7 6 7 9 10 5 5 5 6 6 6 7 6 5
11 11 10 10 9 9 8 8 8 7 6 6 6 5 5 4 4 4 4 4 4 3 3 3 3 3 3 4 4 4 4 4 4 4 4 4 5 6 7 7 7 8 8 8 7 7 7 9 9 9 8 9 10 10 9 10 10 9 8 7 7 7 8 9 9 9 11 12 11 7 6 7 5 6 10 10 11 8 6 6 4 4 7 7 5
10 10 10 10 9 9 8 8 7 7 7 6 5 5 4 4 4 4 4 4 4 3 2 1 1 1 3 3 4 5 5 5 5 5 5 5 5 6 6 6 6 6 7 8 8 8 8 8 8 8 9 9 10 9 10 10 9 10 9 9 7 6 7 7 8 10 10 11 11 9 7 7 9 8 7 10 11 12 12 8 7 6 7 9 9
10 9 9 9 9 9 8 7 7 7 6 6 5 5 4 4 4 4 3 3 3 2 1 1 2 2 4 3 3 4 4 5 5 6 6 6 6 6 6 6 6 5 5 5 6 7 8 8 8 8 9 8 9 9 9 10 9 10 8 8 9 9 8 7 6 8 9 10 11 9 8 8 7 6 8 8 7 4 8 11 13 10 9 7 7
10 9 9 9 9 8 7 6 6 6 6 6 5 5 4 4 4 4 3 3 2 2 2 2 3 2 3 3 3 4 4 4 4 5 7 8 8 8 8 9 9 10 10 10 9 8 8 8 9 9 10 12 14 12 12 12 9 11 11 9 9 10 9 8 5 6 9 11 11 9 7 7 9 8 9 11 13 15 12 9 9 10 9 8 5
10 8 9 8 8 8 8 6 7 6 6 6 5 5 4 4 4 4 4 3 3 2 2 0 2 3 3 3 3 4 4 4 7 13 12 8 7 6 7 7 8 8 9 10 10 10 10 10 10 15 15 15 15 15 14 14 15 12 11 10 11 9 9 10 10 8 7 10 11 10 10 10 8 10 12 13 12 8 8 8 9 8 7 4 2
8 8 7 7 8 8 7 6 6 6 5 5 5 4 4 4 4 4 4 2 2 1 1 3 2 2 2 1 1 2 2 3 9 11 13 15 11 8 7 8 7 8 8 9 10 10 10 10 10 12 14 14 13 13 13 13 12 14 16 16 13 11 11 12 12 10 9 10 9 9 11 12 11 11 13 12 11 13 13 12 10 9 11 12 11
7 7 7 8 8 8 7 7 6 6 6 5 5 5 5 4 4 3 2 1 1 2 3 3 2 1 1 1 2 3 3 6 10 11 12 13 13 11 9 9 8 8 9 10 10 10 11 10 10 9 10 12 12 12 13 14 14 15 15 15 16 16 13 12 12 11 11 10 10 10 9 8 9 10 10 10 12 11 12 12 12 14 12 13 12
5 7 7 8 8 7 7 7 6 6 5 6 6 5 5 4 4 2 1 1 1 3 3 1 1 0 1 2 3 4 4 7 11 12 13 14 14 13 9 10 10 10 10 11 11 11 11 11 11 10 10 14 13 12 12 12 13 15 16 17 18 18 18 17 17 16 12 12 12 12 11 7 5 8 9 14 14 16 13 11 10 12 15 15 13
5 7 7 8 7 7 7 6 6 5 5 5 4 4 4 4 3 2 1 1 2 3 1 0 0 1 2 4 4 4 5 8 11 12 12 13 13 12 9 10 10 10 10 10 10 11 11 11 12 12 11 11 11 11 10 11 11 11 11 10 11 13 13 14 14 16 18 14 13 14 13 8 10 7 7 5 11 14 14 15 14 13 14 15 6
5 7 8 7 7 7 6 6 5 5 4 4 3 3 4 3 2 2 2 2 4 2 1 0 1 2 3 4 4 5 5 10 11 12 13 13 13 11 8 8 9 10 10 10 11 11 11 11 12 13 12 12 11 12 12 12 11 11 11 12 12 13 13 14 12 8 6 9 13 15 14 12 10 9 10 11 16 16 18 22 21 16 7 7 7
7 7 7 7 8 7 7 5 5 4 4 2 3 2 2 1 0 1 2 4 3 2 0 1 2 3 4 4 5 6 5 9 10 9 10 11 12 8 9 10 11 11 11 11 11 11 12 12 13 14 14 13 14 17 16 13 14 15 15 15 13 13 14 15 16 15 12 10 10 13 14 14 14 12 12 12 8 7 2 8 10 9 10 8 7
8 7 7 8 7 7 6 5 4 4 3 3 3 3 4 2 3 2 4 3 2 1 0 2 3 4 4 4 5 5 5 7 11 12 13 15 13 9 9 9 10 11 11 11 12 12 12 12 12 12 13 13 14 14 15 14 14 16 16 16 14 13 14 13 15 18 19 19 18 20 22 22 20 20 19 21 16 12 9 8 7 8 9 11 7
9 8 8 8 7 7 6 5 4 4 5 5 5 4 4 3 3 2 5 2 1 0 2 3 4 4 5 5 5 7 7 9 12 13 14 14 12 9 7 8 10 11 12 12 11 12 14 21 21 15 14 13 13 14 14 13 14 15 15 16 16 15 15 10 10 14 18 18 18 17 20 22 20 20 20 20 19 17 14 15 13 12 13 12 13
9 9 7 7 7 7 7 6 5 5 5 5 5 4 3 3 3 4 4 3 3 3 3 4 4 5 5 6 8 10 8 9 11 12 13 13 10 6 7 8 10 11 11 13 12 12 13 14 20 19 17 16 18 18 17 14 13 13 13 14 16 17 14 7 12 13 13 13 12 10 10 12 12 11 13 21 23 21 18 17 13 13 13 11 8
9 9 8 8 7 6 6 7 7 6 5 4 4 3 1 3 5 5 3 4 2 1 1 2 4 5 5 6 8 7 9 9 9 13 13 13 12 10 8 10 12 13 12 12 13 13 13 13 15 18 21 21 22 22 21 21 17 14 12 14 15 17 8 9 12 11 10 9 10 10 11 11 11 12 11 12 17 20 18 16 17 17 15 14 13
11 8 8 7 8 8 7 6 6 4 4 2 2 1 2 6 4 4 3 2 1 1 2 2 4 6 6 7 8 9 8 10 10 13 13 14 16 14 10 11 12 12 13 14 13 14 13 13 12 16 19 20 20 21 21 21 20 16 16 17 16 12 10 11 11 12 13 13 11 11 11 10 9 10 11 12 13 14 14 15 15 16 16 15 13
10 8 8 9 8 7 6 5 4 3 3 3 2 1 3 6 5 4 3 2 1 3 4 4 5 6 7 7 8 9 10 13 11 12 14 15 16 18 12 11 12 13 15 15 14 14 13 12 12 14 19 20 20 21 21 20 21 16 17 20 20 19 17 14 11 10 11 12 12 12 12 12 9 8 9 10 12 14 14 13 13 14 14 15 18
10 9 8 8 7 6 4 4 4 3 3 3 3 2 4 5 4 3 3 1 0 3 5 5 5 7 8 8 8 8 9 9 13 12 14 17 18 18 18 15 17 16 14 16 15 15 13 13 13 17 20 20 20 20 20 21 19 18 21 20 21 21 18 13 12 11 12 12 12 13 13 12 10 9 8 9 11 13 14 13 12 12 10 6 4
9 9 8 7 6 5 5 5 5 5 4 2 0 2 4 4 4 3 2 1 1 4 6 5 5 7 9 10 9 8 8 8 11 14 14 16 17 19 19 20 20 15 14 15 15 15 15 15 15 19 20 19 20 20 20 20 17 20 20 21 21 19 14 13 12 12 12 12 13 13 13 12 11 9 9 9 10 9 11 10 7 7 8 7 8
9 8 7 6 7 7 6 5 4 3 1 0 0 4 4 4 2 2 1 1 2 4 6 4 6 7 9 10 10 9 9 9 9 11 16 17 19 19 20 21 20 21 17 14 15 16 18 23 25 24 23 23 23 20 18 20 23 22 22 21 19 13 13 13 13 11 12 13 13 12 13 13 10 10 7 7 6 7 7 7 8 9 9 10 9
7 7 7 6 7 6 5 4 2 1 1 3 3 5 5 4 2 2 1 2 3 3 4 6 6 7 8 9 10 10 10 10 10 11 11 13 15 17 19 20 20 22 22 21 25 28 28 28 30 29 27 24 19 16 15 15 18 20 21 21 15 14 13 12 12 12 13 12 11 12 12 10 5 2 5 8 11 10 11 10 11 9 10 11 11
8 7 7 6 5 5 5 3 2 2 4 3 3 4 4 4 3 1 2 4 3 2 4 5 6 7 9 9 10 10 10 10 11 11 10 10 11 12 13 14 18 20 17 15 16 16 18 18 16 18 18 21 23 21 20 18 16 16 14 13 13 14 13 12 12 12 11 11 11 11 8 4 3 4 6 7 8 8 10 12 11 10 11 10 12
8 7 7 6 6 4 5 5 5 4 4 4 3 4 3 3 2 3 4 5 3 3 4 5 6 7 9 9 10 11 11 10 11 11 12 12 12 12 12 12 12 11 12 13 14 15 15 16 17 15 14 14 14 12 13 13 14 13 12 11 12 12 14 17 16 13 13 11 10 7 5 6 8 7 6 7 7 7 8 11 12 11 11 13 11
7 7 6 6 4 4 5 4 5 4 4 4 3 4 3 2 3 3 5 5 5 3 3 5 6 6 6 8 10 12 11 11 11 14 17 19 17 14 13 12 11 12 15 20 17 15 13 13 12 12 11 11 10 10 11 11 11 12 14 12 10 9 9 9 11 11 11 11 9 9 8 8 6 6 7 7 6 6 5 8 9 13 9 10 13
5 7 6 5 4 4 3 4 4 5 5 5 4 1 2 4 6 4 4 7 9 8 6 4 5 6 7 7 7 10 12 13 18 22 22 22 22 23 21 22 22 19 20 24 17 14 13 12 11 11 10 10 10 10 10 9 9 10 10 12 11 10 9 9 9 10 10 10 9 9 9 8 8 8 8 9 7 5 5 10 10 11 11 10 12
6 5 5 4 2 1 3 4 4 6 5 5 3 1 1 2 5 7 6 8 7 8 6 9 7 8 6 9 10 14 17 19 20 21 22 21 22 23 22 22 23 22 22 15 11 11 11 11 10 9 10 10 10 10 9 9 9 9 9 9 9 11 11 11 11 9 10 11 10 10 10 11 10 9 10 10 11 9 7 4 7 8 11 13 14
7 5 4 3 1 0 1 3 5 6 3 3 2 2 2 2 3 6 9 9 9 7 8 5 7 8 12 12 12 11 14 18 21 21 21 22 22 22 22 23 22 21 19 17 12 11 9 9 9 8 8 9 9 8 8 8 9 9 8 8 9 10 11 12 11 12 11 11 10 9 10 9 9 9 9 9 10 10 10 8 8 8 8 8 10
6 4 4 2 1 4 4 4 5 5 3 2 1 3 3 1 1 5 6 7 8 7 6 5 6 8 12 14 15 15 17 19 21 21 21 21 22 21 22 22 20 20 18 10 7 8 6 6 7 7 6 7 7 7 7 7 7 7 7 8 9 9 11 11 13 12 12 12 12 11 10 10 9 9 8 9 11 10 9 9 7 8 10 11 10
5 5 5 3 5 5 4 5 5 4 3 3 3 4 2 1 1 3 5 7 5 5 6 6 7 9 10 13 15 17 19 20 20 21 21 21 21 21 21 16 16 15 10 8 8 8 8 6 5 4 6 6 5 5 5 6 6 6 6 6 5 5 7 9 10 10 9 11 11 10 10 10 11 11 10 8 7 9 10 8 9 10 9 11 13
4 4 9 6 4 3 3 4 3 3 1 1 4 4 1 1 2 3 4 3 3 6 7 7 7 6 8 9 14 18 19 19 20 19 19 20 20 21 18 11 12 11 11 9 9 8 8 8 7 6 2 2 4 4 4 4 4 5 4 4 4 5 8 9 9 9 10 10 10 10 10 11 10 10 12 11 10 9 9 9 8 8 10 10 11
4 5 4 3 2 1 0 2 2 2 3 3 4 3 2 1 4 5 3 1 3 5 6 6 4 6 10 11 14 17 18 19 19 19 17 18 19 18 12 11 11 10 9 9 9 9 8 7 7 6 5 3 2 2 3 3 3 3 2 4 6 6 8 8 9 10 9 10 10 11 10 9 10 10 9 9 11 11 10 10 9 8 9 9 8
7 6 4 3 2 1 0 3 5 4 4 4 3 1 0 2 4 4 2 2 4 5 7 6 5 6 6 5 10 14 17 17 17 17 16 16 16 11 9 9 10 9 9 9 9 9 8 8 7 6 6 5 3 3 4 4 5 5 5 4 4 4 4 6 9 10 10 10 10 10 11 11 10 10 12 12 10 9 9 9 10 11 10 10 10
5 4 3 2 2 1 1 5 3 5 4 2 2 1 1 3 4 3 2 3 4 4 7 6 5 5 6 8 9 9 12 13 13 10 10 11 10 10 9 9 9 9 9 9 9 8 8 8 7 7 7 6 4 4 4 5 5 6 6 6 6 5 9 8 7 9 10 9 10 10 10 10 10 10 10 12 13 12 11 10 11 11 11 11 8
3 4 4 3 2 0 2 4 3 4 3 2 2 1 1 3 4 4 4 3 4 6 6 6 6 5 6 5 7 9 11 11 11 11 11 10 9 9 9 9 9 9 9 9 9 8 8 8 7 7 7 7 6 5 4 5 5 7 7 7 7 6 7 7 8 7 8 9 8 8 9 9 9 9 10 11 11 11 11 12 11 11 11 10 10
3 2 1 1 0 1 4 4 2 1 1 1 1 3 1 2 4 4 4 3 4 4 5 6 7 5 4 2 5 7 9 10 9 9 10 10 10 10 9 9 9 9 8 9 9 8 8 7 8 8 8 8 7 6 6 6 6 6 7 7 8 7 6 6 7 8 9 9 9 9 10 10 10 10 10 9 10 11 12 12 11 11 11 11 10
4 1 1 1 2 5 4 2 1 0 0 1 4 4 3 2 3 4 4 4 3 3 5 5 6 6 2 2 8 9 7 8 9 8 9 9 9 9 9 9 8 8 9 8 8 8 8 8 8 8 8 8 7 7 7 7 6 7 8 8 8 8 7 7 7 7 8 9 9 9 10 10 11 12 12 10 11 12 11 11 11 10 11 11 11
3 3 2 5 6 5 3 1 1 1 1 0 3 5 5 4 3 4 4 3 2 1 4 6 7 6 3 6 7 10 7 6 7 7 8 8 9 9 9 9 8 8 8 8 8 8 8 8 8 8 8 9 8 8 8 8 7 7 7 8 8 8 8 7 6 7 8 8 9 10 10 10 11 11 13 13 12 12 12 11 10 10 10 10 10
5 4 3 3 4 4 2 1 0 1 3 3 4 5 6 4 5 6 3 2 2 1 3 5 7 5 5 3 5 7 5 6 6 7 7 7 8 8 8 9 9 9 8 8 8 8 7 8 8 8 9 9 9 8 8 7 7 7 8 8 9 9 8 7 7 8 8 9 9 10 12 12 12 12 12 11 12 12 12 12 12 11 10 10 10
5 7 4 3 4 3 2 1 0 1 3 5 7 7 7 7 5 3 1 1 1 0 2 3 4 6 5 4 4 6 6 6 6 7 7 7 7 8 8 8 8 8 8 8 8 8 8 8 8 9 9 9 9 10 9 9 8 8 8 8 9 10 9 8 8 7 8 9 10 11 11 11 12 12 12 12 13 13 12 11 12 11 9 9 10
9 9 10 10 9 7 7 8 9 9 9 9 8 8 9 9 10 9 4 1 1 0 1 3 4 4 5 4 4 4 4 5 6 6 6 6 7 7 8 8 8 9 8 8 8 9 8 8 9 10 10 10 10 10 10 10 10 9 8 9 9 9 9 9 7 7 8 10 11 11 11 12 12 12 12 11 11 12 11 10 10 10 10 9 10
9 9 9 8 9 8 8 8 7 8 8 8 8 8 7 8 8 8 8 9 8 2 0 2 3 4 4 5 3 3 3 4 5 5 6 6 6 6 7 7 8 8 8 8 8 9 9 9 9 9 10 10 10 10 10 10 10 10 10 9 9 9 8 8 8 9 9 10 10 11 11 12 12 11 12 11 11 10 10 10 9 9 9 10 9
9 9 9 8 8 8 7 8 8 8 8 8 8 7 8 8 7 8 8 10 10 7 4 4 4 4 5 5 3 2 2 5 5 5 5 5 6 6 6 7 7 7 8 8 8 8 8 9 9 9 10 9 10 11 10 10 10 10 10 10 10 11 9 9 9 10 10 10 10 10 11 11 12 12 13 12 11 10 10 10 10 11 10 9 9
9 9 9 9 9 9 8 8 9 9 8 8 7 7 7 7 8 8 8 8 9 9 9 9 9 8 7 6 5 2 1 2 2 3 4 5 5 5 6 6 7 7 7 7 8 8 8 8 8 9 9 10 10 10 10 10 10 10 10 10 11 11 14 13 10 11 10 10 11 12 12 11 10 10 10 11 10 10 11 10 10 9 9 8 7
9 9 9 9 8 8 8 8 8 8 8 6 7 8 8 8 8 8 8 8 8 8 8 7 7 8 8 8 7 5 2 1 2 2 3 4 4 5 5 5 6 6 6 7 7 8 8 8 9 8 9 8 9 9 10 10 10 10 10 10 15 22 20 18 13 12 14 12 10 11 11 12 12 11 11 11 11 10 10 9 9 8 7 7 7
9 8 8 8 8 8 7 7 7 7 7 7 7 8 7 8 8 8 8 8 8 8 8 8 8 8 8 9 9 8 8 6 4 2 2 3 4 4 4 5 5 5 6 6 6 6 7 7 7 8 8 8 8 9 9 9 9 10 9 12 19 20 20 20 19 18 13 10 11 10 11 11 11 10 10 10 11 11 9 8 7 7 7 7 7
8 8 8 8 8 7 7 7 7 7 7 8 8 8 8 8 8 8 8 8 8 8 8 8 8 8 8 8 8 8 9 9 8 7 3 2 3 3 4 4 4 4 4 5 5 6 6 6 7 7 7 8 8 8 8 9 9 10 13 18 18 18 17 15 13 16 17 12 10 10 10 11 10 10 10 9 8 8 8 7 7 7 6 6 6
Wind_Direction
174 177 171 175 169 178 180 177 179 174 174 173 164 170 164 164 171 183 170 184 176 201 211 223 231 232 239 242 245 252 261 269 267 265 272 275 273 266 265 259 257 258 259 269 274 282 287 289 290 288 284 271 259 249 241 234 231 230 225 225 229 229 231 237 239 248 252 189 204 190 194 153 153 145 129 123 158 230 196 161 154 168 175 177 184
177 174 174 173 174 177 178 175 174 173 175 176 174 170 168 169 177 160 171 204 176 202 213 227 233 240 245 251 253 255 254 259 265 259 261 276 284 285 288 282 273 263 255 260 267 276 284 289 291 296 301 297 290 266 246 237 230 229 230 224 227 230 220 231 233 233 251 192 230 217 186 190 150 183 161 166 177 190 172 155 161 167 175 170 177
176 169 169 171 177 175 171 176 173 177 173 177 175 172 172 177 170 174 188 210 208 203 221 225 234 241 247 247 245 253 257 263 260 258 268 274 278 281 277 277 275 276 273 265 260 261 271 276 281 286 289 292 293 291 277 253 235 229 229 222 227 229 221 217 226 233 242 244 195 209 186 202 174 181 174 169 157 131 159 179 167 169 173 175 178
168 165 168 175 173 169 175 174 173 175 177 175 173 174 170 176 179 179 201 195 211 230 220 230 228 232 247 263 264 261 266 262 263 255 262 272 282 282 282 279 277 274 271 270 265 260 257 263 268 274 279 282 288 294 297 285 263 250 236 226 225 228 226 221 223 229 233 249 202 204 196 184 210 178 171 168 162 160 174 184 178 169 165 173 177
166 171 172 172 172 172 175 172 174 176 173 170 169 170 171 181 183 194 198 214 225 226 248 240 254 260 259 261 269 267 259 256 251 255 254 260 271 279 280 279 279 282 283 283 280 271 262 257 261 263 271 278 283 285 286 289 287 273 255 248 232 224 225 224 226 222 233 237 236 213 193 198 190 181 168 163 147 130 141 169 182 174 165 168 162
170 170 172 170 173 173 173 170 174 173 171 167 170 170 176 180 193 205 198 215 227 230 231 251 243 264 274 277 277 278 276 273 271 267 265 263 265 269 273 275 279 281 282 281 281 281 278 271 264 258 260 266 273 277 281 285 289 285 281 269 259 248 230 223 218 222 224 234 234 224 200 197 201 191 185 167 161 157 148 153 152 171 160 156 158
170 170 170 169 170 173 173 172 167 168 168 171 169 170 175 185 184 204 210 206 219 238 245 251 275 261 280 286 289 292 296 293 288 278 271 264 262 263 266 271 273 276 278 280 281 283 282 279 274 269 264 258 260 265 276 283 286 289 288 283 277 264 261 251 229 217 223 231 235 223 203 200 193 201 197 176 174 171 161 155 175 192 196 177 163
168 170 167 168 170 173 170 165 162 163 168 165 170 175 179 186 198 208 199 206 219 218 227 251 276 297 306 335 346 351 345 339 326 316 307 308 306 300 295 291 288 285 290 295 302 303 304 304 301 293 283 271 262 261 260 270 280 284 291 309 311 305 283 261 256 250 230 230 231 227 211 201 207 198 174 157 153 187 193 172 179 183 194 198 185
168 167 166 169 173 165 158 159 158 160 161 163 168 173 177 189 193 203 204 214 192 204 234 257 280 2 20 24 6 3 356 338 332 332 337 329 325 318 314 308 306 301 298 296 294 293 292 291 291 291 296 307 310 305 293 281 268 273 280 283 286 293 299 301 279 258 256 238 234 226 217 206 203 175 175 173 181 187 188 189 186 178 169 169 183
162 161 165 167 160 157 157 154 160 159 155 161 165 168 180 192 202 205 207 198 215 232 231 333 78 83 42 15 14 6 351 334 327 330 328 323 319 314 310 309 307 305 301 299 294 292 289 289 286 288 291 292 294 295 291 288 283 274 273 277 277 279 279 285 282 273 258 256 248 233 221 215 193 184 183 194 190 168 158 171 179 171 145 130 57
157 157 158 155 153 152 152 156 152 155 161 154 164 172 192 202 202 203 203 207 211 229 102 90 73 72 70 52 2 332 315 304 305 307 307 310 312 307 306 303 302 299 297 294 293 291 288 286 288 288 287 287 286 287 291 290 289 290 286 275 263 258 274 270 266 264 265 261 259 251 229 215 199 187 191 186 180 177 180 182 179 157 170 167 192
157 152 147 146 146 146 146 146 145 156 152 169 179 195 199 197 193 182 168 173 202 120 84 106 121 102 53 10 320 290 276 275 280 281 286 290 293 296 297 296 294 291 291 291 290 292 290 289 283 282 280 282 284 284 285 286 289 289 287 287 285 269 240 239 263 268 254 257 257 254 258 250 218 185 189 177 186 186 191 182 175 174 177 195 190
153 145 142 141 140 138 140 145 153 157 175 185 194 191 187 170 156 139 180 209 138 99 146 101 55 242 326 297 276 266 263 266 271 275 276 277 279 283 286 287 288 287 286 284 284 284 285 284 284 280 280 278 278 278 279 281 282 284 286 288 287 281 275 254 231 238 256 251 251 255 252 242 223 229 204 190 180 186 182 186 187 189 193 193 200
155 141 136 139 140 140 143 144 157 173 179 179 175 170 152 164 169 182 180 185 117 118 103 110 252 287 252 259 264 262 268 272 274 276 275 275 275 275 277 280 282 282 281 278 278 278 277 278 278 277 275 276 275 277 276 277 278 280 283 283 282 288 294 293 287 248 239 245 245 247 246 229 231 201 219 198 181 190 181 194 190 192 196 206 183
161 141 136 140 140 141 145 146 155 162 161 158 148 148 149 159 179 205 203 161 125 137 158 284 255 252 263 263 267 272 270 275 278 281 283 284 285 288 287 285 283 282 281 281 278 277 275 273 271 272 272 269 267 269 274 273 274 273 273 272 276 280 281 282 281 287 255 237 248 248 246 234 226 208 189 195 203 195 192 195 189 190 151 72 76
152 139 134 137 138 137 131 134 142 149 154 139 131 138 139 143 163 275 88 93 111 117 145 186 244 263 268 275 282 285 284 287 293 297 296 294 289 285 282 279 279 278 277 275 274 272 273 272 273 271 270 268 263 262 263 269 271 271 268 267 269 270 272 272 276 278 277 270 254 248 246 235 222 205 190 187 194 220 18 39 73 110 149 161 163
150 143 137 132 129 129 124 125 136 143 139 114 105 101 84 53 28 67 84 101 99 60 20 275 285 295 300 301 294 288 289 289 293 294 295 294 293 286 284 282 282 283 280 280 274 271 266 265 263 266 265 263 261 253 252 256 265 264 264 264 263 264 266 273 279 278 278 278 266 253 244 238 226 212 197 187 183 165 135 150 165 157 161 187 185
149 141 139 132 127 126 126 116 99 82 81 87 93 82 78 75 57 81 107 101 69 261 297 335 324 318 307 300 291 294 294 297 300 299 295 293 290 291 290 291 290 289 290 285 283 277 272 269 267 265 262 261 257 253 252 250 257 258 261 262 260 261 263 266 277 276 276 276 277 262 250 244 228 209 197 188 154 142 165 183 182 176 191 190 189
144 137 132 124 114 104 106 113 120 111 93 100 97 86 80 62 91 88 94 83 45 16 8 351 325 313 298 287 295 302 299 299 298 297 295 293 295 291 293 293 293 291 291 289 284 282 278 271 266 261 260 259 256 255 252 247 254 256 258 259 258 256 258 263 268 274 279 283 282 285 266 253 244 220 205 187 171 175 180 183 164 176 189 194 168
112 115 114 110 110 104 93 86 86 93 102 98 96 103 100 71 82 87 81 87 70 21 8 350 317 299 293 294 294 290 291 288 288 291 295 297 302 305 300 298 294 292 287 284 287 283 281 279 270 260 254 252 251 249 248 243 248 252 254 256 257 258 262 258 257 264 277 296 302 301 290 272 236 214 203 192 186 186 188 184 179 181 185 187 181
104 109 111 105 99 101 107 116 121 130 134 139 151 146 102 107 120 109 112 88 71 355 325 300 286 286 284 285 286 286 283 285 283 282 286 292 295 298 294 287 286 285 287 286 285 286 284 280 277 271 263 254 247 243 240 238 238 243 246 250 249 263 269 261 262 274 280 284 290 294 296 287 248 226 203 189 194 196 195 191 185 186 184 183 183
116 113 108 108 115 115 115 122 127 148 153 139 106 103 112 127 135 135 144 135 60 321 305 291 286 285 284 284 286 285 285 284 287 285 285 288 287 284 283 279 280 286 285 283 281 277 275 273 271 267 264 257 250 244 239 236 235 238 245 248 254 252 251 254 260 259 262 271 277 283 286 285 266 228 214 194 195 194 195 195 193 192 194 187 182
115 112 111 109 104 114 122 124 113 100 108 121 131 147 131 127 139 145 135 107 340 291 286 287 295 294 293 292 289 288 288 288 285 287 285 283 281 280 276 277 278 279 278 279 276 275 272 270 269 268 264 259 252 245 241 239 238 240 243 246 248 248 249 250 250 251 256 259 264 270 273 274 265 236 207 205 199 194 194 191 187 188 185 167 169
105 99 92 91 103 100 104 103 109 110 118 121 154 116 132 146 152 153 149 161 247 279 287 300 302 296 301 304 301 296 293 287 286 283 284 283 284 282 279 276 274 273 272 274 276 273 274 272 273 273 272 267 257 247 241 238 240 242 242 242 244 244 244 244 242 243 246 251 254 253 257 260 254 234 214 201 200 193 183 166 152 146 126 106 96
90 94 103 110 104 106 105 112 115 130 137 142 81 120 158 149 139 195 135 269 271 279 291 298 292 298 304 305 306 303 300 296 293 291 290 290 287 284 281 278 275 273 274 273 271 273 271 272 272 270 267 265 262 261 255 248 244 244 243 241 240 240 238 237 239 236 236 239 242 247 250 251 242 242 210 161 126 113 107 84 90 96 97 93 93
97 107 120 113 120 122 115 117 133 146 151 152 145 153 159 163 158 205 189 255 264 278 286 290 294 298 304 305 307 306 305 303 298 295 295 292 290 286 284 282 280 277 273 272 272 271 271 270 268 267 264 260 256 251 247 244 241 242 244 243 241 238 235 234 231 230 233 236 236 240 243 242 225 223 147 147 147 155 146 136 125 119 121 118 105
114 116 106 111 113 126 131 155 128 142 155 108 112 138 141 144 139 175 214 246 265 272 281 290 292 304 314 312 309 308 305 303 300 299 300 299 298 294 291 286 281 277 275 273 271 270 268 266 263 260 256 253 248 246 245 244 241 240 239 238 236 232 230 228 227 228 230 230 234 238 230 174 128 131 154 153 151 153 151 144 135 136 128 122 117
121 122 119 114 128 146 159 168 143 163 147 130 103 107 147 143 157 209 232 234 221 261 272 281 289 314 323 315 312 310 308 307 306 307 307 305 299 294 288 282 279 272 274 275 275 274 273 271 266 260 258 254 249 239 237 235 234 234 232 229 223 220 220 220 222 226 225 223 226 203 152 159 162 164 151 146 149 150 152 145 140 138 138 128 117
132 123 123 122 165 175 171 141 168 160 129 106 144 168 169 196 194 231 236 189 178 204 241 266 275 292 300 310 315 314 311 311 310 306 303 301 299 297 294 287 281 279 276 276 278 276 271 264 257 256 248 247 240 234 229 225 224 223 224 222 217 210 205 204 216 219 219 216 198 169 167 157 157 148 139 122 124 133 131 118 131 135 143 137 139
116 120 141 156 185 176 151 149 165 129 117 106 85 12 305 169 175 186 244 226 195 194 199 223 274 313 313 301 298 306 310 305 304 305 305 303 301 298 294 292 289 284 281 279 274 273 269 262 254 246 244 237 237 232 229 220 217 214 215 214 215 220 219 218 215 216 207 192 171 162 160 156 152 159 149 140 125 116 132 143 144 141 134 132 128
96 126 142 168 168 131 130 163 141 117 111 109 131 140 333 341 251 227 213 204 201 221 233 256 318 331 309 313 310 303 299 303 308 309 309 308 307 306 305 303 301 298 294 290 279 269 263 253 248 239 238 234 232 233 225 218 211 208 212 209 213 218 223 221 217 201 185 176 168 163 158 159 160 158 152 148 141 134 114 100 120 135 141 143 139
125 163 151 119 103 297 134 158 113 101 120 150 165 119 89 25 320 290 260 227 225 226 247 334 352 331 327 324 321 316 317 317 317 317 316 316 315 312 312 312 310 306 301 292 280 268 252 245 245 239 231 229 227 222 214 211 213 211 212 213 220 220 215 217 196 178 172 162 158 155 156 155 152 152 145 143 137 134 133 134 134 128 124 124 130
139 124 101 102 47 26 47 61 101 142 159 178 189 86 102 108 352 319 312 260 234 237 286 346 339 337 331 331 327 325 323 323 323 324 323 323 321 320 319 317 315 311 310 308 292 292 289 267 246 242 225 222 221 211 209 212 214 214 211 219 224 218 204 190 169 165 161 160 155 156 154 148 143 138 137 139 137 134 135 131 129 130 135 130 128
124 142 156 150 75 60 75 115 141 174 187 174 105 103 159 158 268 291 311 324 346 322 321 314 311 324 327 334 333 331 331 328 328 327 326 326 327 328 327 319 312 313 328 325 323 319 317 320 304 258 226 220 217 205 205 208 208 208 208 208 204 167 151 148 154 153 151 149 149 146 145 145 144 140 138 133 125 127 130 134 137 139 141 139 137
145 132 79 78 108 114 124 155 164 169 202 142 90 116 162 242 258 300 314 306 289 293 296 303 303 310 322 334 336 335 333 332 329 327 328 331 334 334 331 334 339 343 347 345 334 328 329 331 332 331 315 178 177 173 189 183 181 181 173 139 132 139 138 141 141 142 142 140 139 144 145 144 145 141 140 137 135 131 132 131 132 130 130 133 134
118 100 129 140 126 150 180 165 154 59 30 97 108 141 185 251 304 307 322 284 284 293 298 281 276 300 323 331 336 337 335 333 331 330 333 337 339 341 343 342 337 341 341 341 337 333 334 338 338 337 337 354 39 79 98 99 91 98 106 137 142 148 145 137 138 140 141 140 140 135 133 133 135 131 122 121 129 132 134 133 128 124 124 125 125
85 94 114 142 167 161 34 55 64 57 63 100 120 164 275 301 309 328 327 285 284 284 276 287 315 321 319 317 336 337 336 334 334 333 337 339 340 346 344 339 338 337 344 342 342 340 345 349 341 341 352 356 22 60 75 81 82 81 70 61 82 100 111 135 137 136 136 135 135 138 138 138 137 137 135 129 122 120 120 119 119 121 123 125 127
103 116 119 89 65 56 31 71 90 67 57 89 177 183 238 317 324 305 258 268 270 283 299 301 304 310 321 322 336 342 336 334 330 333 341 346 352 354 349 344 343 343 341 343 344 345 347 346 351 352 354 2 17 39 71 80 84 84 81 78 74 79 99 92 97 115 121 126 131 133 131 131 132 130 128 129 132 132 130 129 128 125 121 115 106
96 144 133 148 154 201 92 100 96 83 63 82 173 208 258 323 321 330 278 267 298 308 302 303 308 311 314 318 340 336 343 353 355 353 351 352 351 351 346 347 346 347 348 347 347 349 350 353 354 360 4 8 15 26 52 72 79 86 90 90 90 92 95 107 109 107 111 117 118 121 123 124 124 121 123 124 125 126 126 126 123 121 118 111 105
20 19 13 72 260 64 86 133 138 112 137 130 223 253 280 335 307 300 264 265 301 307 313 315 317 312 308 360 346 347 1 355 349 347 348 352 353 352 351 351 351 351 350 350 350 351 354 359 2 9 11 10 14 22 28 56 70 81 85 89 94 89 88 96 106 117 119 116 118 123 124 123 121 119 116 117 119 119 120 118 115 112 109 104 102
10 16 99 77 46 88 107 120 121 202 229 193 213 239 250 256 278 290 265 259 267 298 311 314 315 308 309 42 12 15 11 357 345 347 351 350 352 353 354 353 351 353 355 356 354 356 2 6 10 12 18 18 17 26 31 38 53 68 78 82 85 89 90 91 99 105 110 115 122 123 120 120 122 123 121 117 111 109 107 108 108 109 111 113 121
7 359 26 60 78 103 131 167 211 278 324 4 287 279 275 258 264 278 264 250 247 277 314 319 317 313 343 59 34 20 20 359 350 347 350 352 354 356 355 355 355 357 358 357 358 360 4 14 17 22 24 24 23 28 34 40 44 59 71 80 82 84 85 85 89 96 105 110 115 117 118 118 117 112 114 117 116 115 114 112 111 114 119 122 123
336 324 313 99 107 127 154 214 255 335 335 321 294 298 302 285 262 251 246 245 243 232 300 319 318 327 340 30 49 26 15 5 359 354 352 356 355 356 357 359 359 2 3 3 2 2 8 18 26 27 31 31 32 33 37 38 40 53 61 72 81 81 82 83 83 90 99 105 105 105 108 113 113 113 114 112 112 113 116 119 120 122 122 121 119
1 358 360 119 149 168 191 171 268 294 309 334 353 355 354 346 315 291 274 240 288 208 266 295 319 329 333 0 42 29 14 7 3 358 360 359 1 359 359 360 2 5 8 8 8 9 16 22 32 36 36 37 36 40 41 38 39 47 54 65 72 77 78 77 81 89 100 106 105 104 103 102 103 105 107 109 112 114 114 115 115 116 119 118 115
40 36 38 25 5 7 6 9 12 21 33 32 28 17 17 25 27 21 6 319 292 347 284 284 310 337 340 358 43 42 17 10 7 4 5 6 6 4 1 4 7 9 10 13 13 17 20 26 34 40 42 40 41 43 45 44 43 45 46 56 64 67 70 74 75 81 90 97 100 100 99 100 100 100 100 100 102 104 103 101 105 114 113 112 107
45 42 37 33 37 37 39 37 33 41 38 35 27 18 22 26 23 21 21 5 331 338 310 306 331 330 337 353 33 54 22 22 18 14 10 7 11 10 7 9 11 13 15 16 16 23 27 30 36 42 45 45 45 46 48 48 48 48 49 50 58 62 62 66 74 79 79 83 92 95 96 94 93 93 95 97 94 94 100 104 103 99 101 101 97
41 42 34 35 36 38 39 40 40 35 35 30 26 24 26 23 21 22 22 14 8 355 343 335 344 330 331 339 17 65 29 33 29 26 19 13 13 14 17 15 17 19 20 19 20 23 28 32 38 43 47 48 50 50 50 49 51 51 50 51 53 57 55 62 65 71 76 77 81 88 90 93 93 96 94 95 98 99 99 97 99 98 96 99 101
39 36 37 34 34 35 32 36 38 34 31 29 25 25 29 26 26 24 21 17 13 8 10 7 4 353 347 342 351 49 74 22 31 38 31 29 21 19 22 24 25 22 24 27 26 28 28 32 36 43 46 48 51 52 51 53 52 52 54 55 57 62 62 63 65 66 72 76 77 81 84 86 87 89 94 98 101 102 101 98 96 96 102 104 107
36 37 36 34 34 33 33 34 37 35 26 17 22 28 27 29 27 23 19 18 19 13 9 13 14 15 12 6 359 2 17 28 22 58 58 42 42 34 27 26 29 30 32 34 32 34 35 37 41 44 47 49 51 54 56 56 56 54 57 57 61 63 64 65 68 68 71 75 76 79 84 88 88 88 89 92 93 92 92 92 96 100 101 102 107
34 33 34 32 32 28 26 34 39 39 33 30 34 33 28 29 28 23 15 15 17 15 12 12 14 13 12 9 6 2 358 357 354 18 96 87 64 58 45 34 34 34 38 40 36 36 37 41 43 45 47 49 49 53 57 58 60 60 59 60 62 63 64 64 65 65 67 68 69 73 75 80 83 87 86 85 85 85 84 85 90 96 101 104 106
35 32 30 30 31 28 27 28 30 34 36 34 34 33 29 28 27 20 15 16 11 10 8 10 10 12 11 9 5 5 2 358 355 355 22 97 106 81 72 61 52 42 44 47 46 42 44 45 45 47 48 51 53 57 58 61 62 66 66 64 64 63 63 65 67 66 67 69 72 72 75 76 79 80 81 83 83 84 87 89 89 94 100 103 108